Probability
0 0 0 0 0 0 0 0 0 0 0 0 0 0 0 0 0 0 0 0 0 0 0 0 0 0 0 0 0 0 0 0 0 0 0 0 0 0 0 0 0 0 0 0
0 0 0 0 0 0 0 0 0 0 0 0 0 0 0 0 0 0 0 0 0 0 0 0 0 0 0 0 0 0 0 0 0 0 0 0 0 0 0 0 0 0 0 0
0 0 0 0 0 0 0 0 0 0 0 0 0 0 0 0 0 0 0 0 0 0 0 0 0 0 0 0 0 0 0 0 0 0 0 0 0 0 0 0 0 0 0 0
0 0 0 0 0 0 0 0 0 0 0 0 0 0 0 0 0 0 0 0 0 0 0 0 0 0 0 0 0 0 0 0 0 0 0 0 0 0 0 0 0 0 0 0
0 0 0 0 0 0 0 0 0 0 0 0 0 0 0 0 0 0 0 0 0 0 0 0 0 0 0 0 0 0 0 0 0 0 0 0 0 0 0 0 0 0 0 0
0 0 0 0 0 0 0 0 0 0 0 0 0 0 0 0 0 0 0 0 0 0 0 0 0 0 0 0 0 0 0 0 0 0 0 0 0 0 0 0 0 0 0 0
0 0 0 0 0 0 0 0 0 0 0 0 0 0 0 0 0 0 0 0 0 0 0 0 0 0 0 0 0 0 0 0 0 0 0 0 0 0 0 0 0 0 0 0
0 0 0 0 0 0 0 0 0 0 0 0 0 0 0 0 0 0 0 0 0 0 0 0 0 0 0 0 0 0 0 0 0 0 0 0 0 0 0 0 0 0 0 0
0 0 0 0 0 0 0 0 0 0 0 0 0 0 0 0 0 0 0 0 0 0 0 0 0 0 0 0 0 0 0 0 0 0 0 0 0 0 0 0 0 0 0 0
0 0 0 0 0 0 0 0 0 0 0 0 0 0 0 0 0 0 0 0 0 0 0 0 0 0 0 0 0 0 0 0 0 0 0 0 0 0 0 0 0 0 0 0
0 0 0 0 0 0 0 0 0 0 0 0 0 0 0 0 0 0 0 0 0 0 0 0 0 0 0 0 0 0 0 0 0 0 0 0 0 0 0 0 0 0 0 0
0 0 0 0 0 0 0 0 0 0 0 0 0 0 0 0 0 0 0 0 0 0 0 0 0 0 0 0 0 0 0 0 0 0 0 0 0 0 0 0 0 0 0 0
0 0 0 0 0 0 0 0 0 0 0 0 0 0 0 0 0 0 0 0 0 0 0 0 0 0 0 0 0 0 0 0 0 0 0 0 0 0 0 0 0 0 0 0
0 0 0 0 0 0 0 0 0 0 0 0 0 0 0 0 0 0 0 0 0 0 0 0 0 0 0 0 0 0 0 0 0 0 0 0 0 0 0 0 0 0 0 0
0 0 0 0 0 0 0 0 0 0 0 0 0 0 0 0 0 0 0 0 0 0 0 0 0 0 0 0 0 0 0 0 0 0 0 0 0 0 0 0 0 0 0 0
0 0 0 0 0 0 0 0 0 0 0 0 0 0 0 0 0 0 0 0 0 0 0 0 0 0 0 0 0 0 0 0 0 0 0 0 0 0 0 0 0 0 0 0
0 0 0 0 0 0 0 0 0 0 0 0 0 0 0 0 0 0 0 0 0 0 0 0 0 0 0 0 0 0 0 0 0 0 0 0 0 0 0 0 0 0 0 0
0 0 0 0 0 0 0 0 0 0 0 0 0 0 0 0 0 0 0 0 0 0 0 0 0 0 0 0 0 0 0 0 0 0 0 0 0 0 0 0 0 0 0 0
0 0 0 0 0 0 0 0 0 0 0 0 0 0 0 0 0 0 0 0 0 0 0 0 0 0 0 0 0 0 0 0 0 0 0 0 0 0 0 0 0 0 0 0
0 0 0 0 0 0 0 0 0 0 0 0 0 0 0 0 0 0 0 0 0 0 0 0 0 0 0 0 0 0 0 0 0 0 0 0 0 0 0 0 0 0 0 0
0 0 0 0 0 0 0 0 0 0 0 0 0 0 0 0 0 0 0 0 0 0 0 0 0 0 0 0 0 0 0 0 0 0 0 0 0 0 0 0 0 0 0 0
0 0 0 0 0 0 0 0 0 0 0 0 0 0 0 0 0 0 0 0 0 0 0 0 0 0 0 0 0 0 0 0 0 0 0 0 0 0 0 0 0 0 0 0
0 0 0 0 0 0 0 0 0 0 0 0 0 0 0 0 0 0 0 0 0 0 0 0 0 0 0 0 0 0 0 0 0 0 0 0 0 0 0 0 0 0 0 0
0 0 0 0 0 0 0 0 0 0 0 0 0 0 0 0 0 0 0 0 0 0 0 0 0 0 0 0 0 0 0 0 0 0 0 0 0 0 0 0 0 0 0 0
0 0 0 0 0 0 0 0 0 0 0 0 0 0 0 0 0 0 0 0 0 0 0 0 0 0 0 0 0 0 0 0 0 0 0 0 0 0 0 0 0 0 0 0
0 0 0 0 0 0 0 0 0 0 0 0 0 0 0 0 0 0 0 0 0 0 0 0 0 0 0 0 0 0 0 0 0 0 0 0 0 0 0 0 0 0 0 0
Wind_Speed
5 9 13 15 10 6 11 10 8 5 2 5 9 11 10 6 7 9 9 8 8 8 5 5 8 10 12 14 15 16 16 15 12 9 9 8 8 8 7 7 9 11 11 11
8 12 8 8 8 9 10 10 7 3 2 2 4 10 10 8 8 8 9 9 8 6 5 4 4 7 10 13 14 15 16 15 14 11 10 7 7 7 8 7 10 12 12 11
13 5 10 10 10 9 6 9 9 7 4 2 3 8 7 5 3 4 6 7 6 5 5 3 2 4 6 9 11 11 14 14 14 13 9 5 5 3 5 8 8 10 11 11
6 5 9 12 10 9 7 4 8 8 6 3 2 6 4 3 4 4 3 3 2 1 1 1 1 0 2 3 5 8 10 11 12 12 10 11 9 9 9 7 6 8 10 11
9 9 10 12 10 7 6 7 7 5 4 2 3 6 6 2 6 4 2 2 2 3 3 3 3 3 3 2 2 4 6 7 8 10 10 10 9 8 6 4 5 6 6 8
4 3 3 5 5 7 13 9 8 4 2 6 6 8 7 5 6 4 4 3 4 4 5 6 6 6 7 7 6 5 6 4 4 6 7 8 8 6 4 3 3 3 3 4
4 2 2 5 10 5 8 10 5 4 5 7 3 7 10 4 3 3 3 3 4 4 6 7 8 9 9 9 9 8 9 8 5 4 3 3 3 3 3 2 2 2 2 2
13 10 10 7 8 12 10 12 9 9 8 4 3 9 7 1 1 2 3 4 5 7 7 8 9 9 9 10 10 10 10 10 8 7 5 4 3 1 1 1 1 1 2 3
15 9 3 3 1 11 11 7 3 6 3 2 7 7 9 2 3 5 7 9 9 8 8 9 9 9 10 10 10 10 11 11 9 8 7 6 5 4 3 3 2 1 2 3
9 9 4 3 4 4 3 11 6 6 7 6 6 7 7 8 9 10 11 11 10 9 9 9 9 9 9 9 10 10 11 11 10 9 7 6 6 5 5 4 4 3 4 4
5 9 5 4 11 13 8 7 7 7 5 7 6 7 5 8 11 15 14 12 11 10 9 9 8 8 9 9 10 10 10 10 9 8 8 7 7 6 5 5 5 4 4 5
5 7 6 6 1 2 5 10 10 9 8 6 4 5 3 5 9 12 14 12 10 10 9 9 9 8 9 9 9 9 9 9 8 7 7 7 7 6 6 6 6 5 5 5
9 9 8 4 3 3 6 6 7 4 6 7 7 6 3 4 8 10 12 12 10 10 9 9 8 8 8 8 8 8 9 8 7 7 7 7 7 7 7 6 6 6 6 6
6 6 9 16 10 13 10 10 10 8 7 9 13 8 5 9 12 14 13 13 12 10 9 9 8 8 7 7 7 7 8 7 6 7 7 8 7 7 7 6 6 6 6 6
6 7 5 2 4 10 12 16 17 17 18 15 15 14 11 15 18 18 16 14 13 11 10 9 8 7 7 7 7 7 7 7 6 7 8 7 7 7 6 7 7 7 6 7
5 6 6 3 3 4 6 14 21 22 19 19 12 12 6 9 11 14 16 16 15 14 12 10 9 8 7 6 6 6 6 6 6 7 7 6 7 7 7 7 7 7 7 7
8 8 7 6 5 3 9 16 20 16 14 15 22 15 8 10 16 19 19 18 17 15 13 11 9 8 6 5 5 5 5 5 5 5 5 6 7 7 8 8 8 8 8 9
9 7 5 7 7 12 9 4 12 16 16 16 9 5 15 15 14 12 14 17 16 15 14 11 9 8 6 5 4 4 4 4 4 4 5 6 7 7 8 8 8 9 8 8
6 8 6 6 9 9 5 5 9 12 15 15 15 9 9 9 8 5 8 13 14 14 12 10 9 8 7 5 4 3 4 4 4 5 6 7 7 8 9 9 9 9 9 9
4 5 6 7 9 13 6 5 5 6 10 9 14 14 14 16 11 10 12 13 14 13 10 9 8 7 6 4 3 3 3 4 5 6 7 7 7 8 9 9 10 9 9 10
9 7 9 9 9 9 2 4 8 10 9 4 11 13 17 15 6 12 17 14 13 12 11 9 8 7 5 4 3 3 3 4 5 6 7 7 7 8 9 9 8 9 9 10
12 10 9 8 9 10 7 10 12 5 2 3 6 8 10 8 12 17 17 16 14 12 10 9 7 6 5 4 3 2 3 4 5 7 7 8 8 8 7 9 9 9 9 10
9 8 7 9 7 0 8 6 2 3 4 4 6 9 13 13 14 16 15 14 12 11 9 7 7 6 5 4 3 2 3 5 6 7 8 8 8 8 7 8 9 9 8 8
4 1 4 4 5 2 3 1 2 3 3 5 7 12 13 13 15 15 14 12 11 9 7 5 6 5 3 3 3 2 4 5 5 7 8 8 8 9 7 7 7 7 7 7
7 8 6 5 2 1 4 6 5 4 5 7 8 9 13 16 16 14 12 10 9 7 6 5 4 3 2 1 2 2 4 4 6 7 7 7 7 8 8 8 7 9 8 9
6 9 10 8 8 7 6 7 9 8 8 10 10 8 7 10 13 11 10 9 8 8 6 5 3 2 1 1 2 3 3 3 5 6 6 6 6 7 7 8 9 11 12 15
Wind_Direction
152 184 194 189 193 182 169 171 177 169 128 198 228 250 258 253 254 258 255 249 246 251 253 237 228 219 216 216 215 215 213 210 205 204 206 209 213 210 211 210 209 210 208 206
164 205 183 133 121 128 152 166 162 121 84 211 247 262 263 256 248 252 259 259 261 262 255 245 230 213 211 213 214 215 215 212 207 209 209 212 214 215 213 208 212 213 212 209
188 167 144 139 144 133 157 174 166 149 130 96 288 259 240 235 235 253 255 262 270 275 279 278 240 216 208 213 215 214 214 213 211 211 210 200 204 204 208 215 217 216 216 215
172 146 156 157 170 164 182 172 143 141 163 171 249 261 245 231 265 245 238 230 260 301 314 341 15 121 191 216 214 215 214 213 212 210 211 210 213 221 225 225 222 218 216 220
177 163 164 178 179 153 129 113 113 124 136 174 202 248 259 244 248 220 157 117 82 54 58 60 55 62 64 78 140 174 188 199 205 207 211 216 224 232 235 227 231 228 222 225
114 159 173 152 109 121 128 104 82 79 136 235 204 221 256 217 213 166 132 102 70 71 81 80 77 77 74 75 86 105 122 135 170 190 202 212 221 227 227 223 232 238 238 239
134 146 118 130 115 125 162 144 143 171 206 227 148 225 248 240 209 185 166 117 83 89 95 89 82 76 72 72 77 87 95 93 100 121 143 174 202 213 228 236 244 254 258 262
171 186 192 185 165 166 185 181 175 185 202 190 176 232 250 267 259 194 163 135 115 105 97 87 80 78 75 73 74 80 83 83 82 87 88 81 80 87 64 39 13 311 292 290
183 177 111 165 163 153 163 188 127 116 99 181 218 252 280 233 191 161 151 143 128 115 104 94 85 79 76 73 70 75 81 80 76 78 80 75 71 70 65 53 34 5 338 323
153 148 141 142 114 17 181 145 143 163 163 212 227 231 226 197 183 163 158 150 136 125 113 101 91 85 78 75 75 74 75 76 73 72 70 66 63 59 55 49 35 14 355 342
133 130 134 170 195 175 145 170 173 168 190 190 222 235 211 200 179 169 163 153 144 135 123 111 100 90 85 79 74 72 70 70 67 65 67 66 60 54 51 44 27 7 353 343
136 123 145 188 80 281 205 183 167 178 199 206 220 249 84 209 180 168 157 149 141 133 123 114 107 98 88 80 73 69 66 63 59 59 62 59 53 46 42 34 20 5 354 344
146 132 120 135 188 190 215 200 193 140 135 172 197 238 83 161 160 162 156 151 146 139 131 122 112 99 90 82 75 69 62 58 53 55 57 53 44 36 29 19 8 1 352 342
133 153 184 197 194 178 191 193 185 167 187 206 222 220 178 172 168 168 166 160 153 147 141 131 119 106 95 86 78 71 63 54 50 53 52 44 31 22 14 6 359 353 346 339
153 181 188 180 131 166 191 194 192 207 217 221 227 217 202 188 182 176 168 162 158 156 150 142 130 118 106 93 79 69 62 50 45 48 44 32 18 10 4 358 350 343 338 334
163 164 149 138 139 170 200 203 202 213 222 230 232 225 202 185 175 170 171 171 170 165 157 147 136 125 111 95 81 71 60 47 41 43 34 16 6 359 355 348 340 336 334 331
160 142 153 175 139 109 236 214 206 214 218 218 232 231 158 181 186 186 183 181 176 166 159 153 145 132 117 99 84 72 59 48 44 38 23 9 358 350 345 338 335 333 330 326
156 143 138 138 148 216 230 191 203 214 223 217 223 182 185 195 187 185 182 177 169 162 157 151 143 131 118 105 90 77 61 48 40 28 13 0 349 341 335 332 329 327 322 319
159 146 144 169 205 241 261 202 184 200 232 219 220 197 169 131 118 163 177 171 163 157 150 143 137 128 118 104 90 85 69 49 35 16 360 350 341 333 329 326 323 320 316 312
146 151 156 177 206 228 226 167 170 158 245 206 200 188 166 156 183 193 166 154 146 142 139 134 128 121 111 94 82 78 58 37 19 357 343 335 332 325 319 316 314 312 308 303
169 173 189 194 218 249 209 154 151 187 235 183 193 185 174 186 198 138 143 143 141 137 133 130 125 116 100 81 73 71 49 24 358 340 331 328 326 319 310 309 307 306 303 302
177 175 182 178 204 232 159 159 189 205 99 149 161 165 159 121 116 132 141 142 141 137 133 131 125 112 93 69 62 57 27 1 346 335 327 322 318 313 309 307 304 302 300 300
195 184 177 192 211 150 168 188 187 142 161 166 155 148 140 133 139 142 144 143 141 138 133 126 122 116 99 69 54 33 360 348 339 328 318 313 311 305 303 302 303 303 298 295
217 153 161 201 227 201 199 209 186 184 169 155 149 149 149 147 149 148 146 146 143 136 131 126 126 127 119 81 49 15 344 343 329 317 313 310 309 308 306 299 294 293 293 293
177 169 177 209 197 133 242 221 192 159 137 137 138 152 157 149 153 154 151 150 145 138 130 128 132 137 132 65 4 355 346 339 320 308 303 305 303 304 305 297 287 287 278 276
186 181 187 209 189 187 207 197 177 168 169 162 151 143 146 153 153 149 148 147 144 142 137 136 137 146 156 322 314 329 337 329 313 307 307 306 305 303 300 301 298 286 284 291